Regional Weather Roundup
Issued by NWS Glasgow, MT

Home | Current Version | Previous Version | Text Only | Print | Product List | Glossary On
Versions: 1 2 3 4 5 6 7 8 9 10 11 12 13 14 15 16 17 18 19 20 21 22 23 24 25 26 27 28 29 30 31 32 33 34 35 36 37 38 39 40 41 42 43 44 45 46 47 48 49 50
000
ASUS45 KGGW 230315
RWRGGW
HOURLY WEATHER ROUNDUP FOR NORTHEAST MONTANA
NATIONAL WEATHER SERVICE GLASGOW MONTANA
900 PM MDT FRI MAY 22 2015

NOTE: "FAIR" INDICATES FEW OR NO CLOUDS BELOW 12,000 FEET WITH NO
SIGNIFICANT WEATHER AND/OR OBSTRUCTIONS TO VISISBILITY.

NORTHEAST MONTANA


CITY           SKY/WX    TMP DP  RH WIND       PRES   REMARKS
GLASGOW        PTCLDY    62  41  46 E9        29.97R
WOLF POINT     MOCLDY    62  42  47 SE5       29.99R
JORDAN           N/A     66  43  43 E14       29.95R
WINNETT          N/A     61  45  55 E8G17       N/A
SIDNEY         MOCLDY    61  36  39 SE8       30.02S
GLENDIVE       CLOUDY    63  39  42 SE8       30.02R
MALTA            N/A     65  47  52 E5          N/A
SCOBEY           N/A     59  30  33 E7        30.02R

FORT PECK REPORTS


CITY           SKY/WX    TMP DP  RH WIND       PRES   REMARKS
FORT PECK        N/A     65  42  43 E17         N/A
THE PINES        N/A     66  40  38 SE5         N/A

SOUTHEAST MONTANA


CITY           SKY/WX    TMP DP  RH WIND       PRES   REMARKS
BILLINGS       CLOUDY    61  44  53 SE12      29.92R
MILES CITY     CLOUDY    63  43  48 SE10      29.97R
BAKER          MOCLDY    52  41  66 SE3       30.04R
LIVINGSTON     MOCLDY    53  44  71 SE10      29.93F

CENTRAL MONTANA


CITY           SKY/WX    TMP DP  RH WIND       PRES   REMARKS
HAVRE          PTCLDY    62  50  64 E8        29.94R
LEWISTOWN      CLOUDY    55  44  66 NE7       29.96F
GREAT FALLS    PTCLDY    58  47  66 E7        29.93R
CUT BANK       PTCLDY    60  35  39 E9        29.97R
HELENA         CLOUDY    63  43  48 E12       29.92R
BUTTE          CLOUDY    55  41  59 SE9       29.97R
BOZEMAN        MOCLDY    57  45  64 SE9       29.93R

WESTERN MONTANA


CITY           SKY/WX    TMP DP  RH WIND       PRES   REMARKS
MISSOULA       CLOUDY    68  36  30 E9        29.86R
KALISPELL      NOT AVBL

NORTH DAKOTA


CITY           SKY/WX    TMP DP  RH WIND       PRES   REMARKS
WILLISTON      PTCLDY    66  34  30 SE6       30.04R
DICKINSON      PTCLDY    54  35  48 SE12      30.06R
MINOT          MOCLDY    61  38  42 CALM      30.07R
BISMARCK       PTCLDY    55  42  61 SE7       30.09R

SOUTHERN SASKATCHEWAN


CITY           SKY/WX    TMP DP  RH WIND       PRES   REMARKS
REGINA         PTCLDY    64  36  34 S6        30.04R
ESTEVAN        MOCLDY    59  41  51 S7        30.07
SWIFT CURRENT  CLEAR     63  30  29 SE7       30.02R




USA.gov is the U.S. government's official web portal to all federal, state and local government web resources and services.